Вернуться в каталог

STARLINK-6049

АктивенСвязьVLEO
NORAD 56796·PAYLOAD·🇺🇸 United States

Запущен May 31, 2023 с Vandenberg Space Force Base

Loading…

Ближайшие Пролёты (ближайшие 24 часа)

TLE

СвежийSource: CelesTrak SupGP

Эпоха: Sep 14, 2026, 22:08 UTC

1 56796C 23078AF  26257.92270833  .00011284  00000+0  94537-3 0  2572
2 56796  70.0015 227.4287 0003724 264.1658  73.1526 14.98334902    16

Отслеживайте STARLINK-6049 в реальном времени с AllMySat

Download on the App Store